Flag for U.S.A. Weather past 2 weeks in Bakersfield, California, U.S.A.

Now
57 °F

Clear.


Feels Like: 56 °F
Forecast: 49 / 69 °F
Wind: 7 mph from Northwest

Location: Meadows Field

Current Time: Apr 1, 2015 at 1:02:48 AM

Latest Report: Mar 31, 2015 at 11:54 PM


Visibility: 10 mi

Pressure: 30.09 "Hg

Humidity: 51%

Dew point: 39 °F

Location of BakersfieldLocation

Historic Weather in Bakersfield — Graph

°F

Bakersfield temperature yesterday

Maximum temperature yesterday: 78 °F (at 2:54 PM)
Minimum temperature yesterday: 57 °F (at 6:54 AM)
Average temperature yesterday: 67 °F

Past Weeks' High & Low Weather Summary

 TemperatureHumidityPressure
High93 °F (Mar 27, 3:54 PM)77% (Mar 23, 6:54 AM)30.27 "Hg (Mar 23, 6:54 AM)
Low47 °F (Mar 24, 6:54 AM)11% (Mar 27, 3:54 PM)29.89 "Hg (Mar 30, 5:54 PM)
Average67 °F44%30.07 "Hg
* Reported Mar 16 11:54 PM — Mar 31 11:54 PM, Bakersfield, Weather by CustomWeather, © 2015

Note: Actual official high and low records may vary slightly from our data, if they occured in-between our weather recording intervals... More about our weather records

Advertising

Bakersfield weather history for previous 24 hours

 ConditionsComfort  
Time TempWeatherWind HumidityBarometerVisibility
11:54 PM
Tue, Mar 31
57 °FClear.7 mph51%30.09 "Hg10 mi
10:54 PM61 °FClear.12 mph41%30.07 "Hg10 mi
9:54 PM64 °FClear.8 mph34%30.05 "Hg10 mi
8:54 PM66 °FClear.8 mph31%30.03 "Hg10 mi
7:54 PM70 °FSunny.10 mph30%30.00 "Hg10 mi
6:54 PM74 °FSunny.12 mph27%29.97 "Hg10 mi
5:54 PM77 °FSunny.13 mph23%29.97 "Hg10 mi
4:54 PM78 °FSunny.13 mph22%29.98 "Hg10 mi
3:54 PM78 °FSunny.10 mph23%30.00 "Hg10 mi
2:54 PM78 °FSunny.13 mph24%30.03 "Hg10 mi
1:54 PM75 °FSunny.10 mph25%30.06 "Hg10 mi
12:54 PM73 °FSunny.13 mph23%30.09 "Hg10 mi
11:54 AM72 °FSunny.8 mph23%30.10 "Hg10 mi
10:54 AM71 °FSunny.12 mph23%30.10 "Hg10 mi
9:54 AM68 °FSunny.7 mph30%30.09 "Hg10 mi
8:54 AM64 °FSunny.6 mph35%30.07 "Hg10 mi
7:54 AM60 °FSunny.No wind52%30.06 "Hg10 mi
6:54 AM57 °FClear.No wind58%30.03 "Hg10 mi
5:54 AM58 °FClear.3 mph54%30.01 "Hg10 mi
4:54 AM62 °FClear.6 mph44%29.99 "Hg10 mi
3:54 AM62 °FClear.No wind54%29.98 "Hg10 mi
2:54 AM64 °FClear.7 mph49%29.97 "Hg10 mi
1:54 AM64 °FClear.13 mph45%29.97 "Hg10 mi
Weather by CustomWeather, © 2015

See weather overviewHow to use our weather pages